When you browse on this site, cookies collect data to enhance your experience and personalize the content and advertising you see.
Visit our Privacy Policy to learn more. By continuing to use the site, you agree to this use of cookies and data.
  • Em Portugal
  • Lista de países
  • Para 7 dias
  • Temperatura da água
  • Mapa do tempo
  • Widgets de tempo
  • user-avatar
    Iniciar Sessão

    Previsão horária em Plovdiv

    Hoje, 30 Março, Segunda-feira

    Tempo Temperatura Precipitação Vento Pressão Humidade
    00:00 +8°C° 0 mm 2 m/s 734 mmHg 74%
    01:00 +8°C° 0 mm 2 m/s 734 mmHg 74%
    02:00 +8°C° 0 mm 2 m/s 734 mmHg 74%
    03:00 +8°C° 0 mm 2 m/s 734 mmHg 75%
    04:00 +7°C° 0 mm 2 m/s 734 mmHg 75%
    05:00 +7°C° 0 mm 2 m/s 734 mmHg 75%
    06:00 +8°C° 0 mm 2 m/s 734 mmHg 72%
    07:00 +10°C° 0 mm 2 m/s 734 mmHg 68%
    08:00 +12°C° 0 mm 1 m/s 734 mmHg 65%
    09:00 +14°C° 0 mm 2 m/s 735 mmHg 59%
    10:00 +15°C° 0 mm 2 m/s 735 mmHg 52%
    11:00 +17°C° 0 mm 2 m/s 735 mmHg 46%
    12:00 +17°C° 0.1 mm 2 m/s 735 mmHg 46%
    13:00 +17°C° 0.1 mm 2 m/s 734 mmHg 45%
    14:00 +18°C° 0.1 mm 2 m/s 734 mmHg 44%
    15:00 +18°C° 0.3 mm 1 m/s 734 mmHg 47%
    16:00 +18°C° 0.3 mm 1 m/s 734 mmHg 50%
    17:00 +16°C° 0.3 mm 1 m/s 734 mmHg 52%
    18:00 +15°C° 0.1 mm 1 m/s 734 mmHg 59%
    19:00 +13°C° 0.1 mm 1 m/s 734 mmHg 66%
    20:00 +12°C° 0.1 mm 2 m/s 735 mmHg 73%
    21:00 +11°C° 0 mm 1 m/s 735 mmHg 74%
    22:00 +11°C° 0 mm 1 m/s 735 mmHg 75%
    23:00 +11°C° 0 mm 1 m/s 736 mmHg 76%

    Amanhã, 31 Março, Terça-feira

    Tempo Temperatura Precipitação Vento Pressão Humidade
    00:00 +10°C° 0 mm 1 m/s 736 mmHg 78%
    01:00 +10°C° 0 mm 1 m/s 736 mmHg 80%
    02:00 +10°C° 0 mm 1 m/s 736 mmHg 82%
    03:00 +9°C° 0 mm 1 m/s 736 mmHg 82%
    04:00 +9°C° 0 mm 1 m/s 736 mmHg 82%
    05:00 +9°C° 0 mm 1 m/s 736 mmHg 83%
    06:00 +8°C° 0 mm 2 m/s 736 mmHg 81%
    07:00 +8°C° 0 mm 2 m/s 736 mmHg 79%
    08:00 +9°C° 0 mm 2 m/s 736 mmHg 77%
    09:00 +9°C° 0 mm 2 m/s 737 mmHg 74%
    10:00 +10°C° 0 mm 2 m/s 737 mmHg 72%
    11:00 +10°C° 0 mm 2 m/s 737 mmHg 69%
    12:00 +10°C° 0.1 mm 2 m/s 737 mmHg 72%
    13:00 +10°C° 0.1 mm 2 m/s 737 mmHg 75%
    14:00 +10°C° 0.1 mm 2 m/s 737 mmHg 79%
    15:00 +9°C° 0.2 mm 2 m/s 736 mmHg 81%
    16:00 +9°C° 0.2 mm 2 m/s 736 mmHg 84%
    17:00 +9°C° 0.2 mm 2 m/s 736 mmHg 86%
    18:00 +8°C° 0.5 mm 2 m/s 737 mmHg 88%
    19:00 +8°C° 0.5 mm 2 m/s 737 mmHg 90%
    20:00 +7°C° 0.5 mm 2 m/s 737 mmHg 92%
    21:00 +7°C° 0.9 mm 2 m/s 738 mmHg 93%
    22:00 +6°C° 0.9 mm 2 m/s 738 mmHg 93%
    23:00 +6°C° 0.9 mm 2 m/s 738 mmHg 94%

    Depois de amanhã, 1 Abril, Quarta-feira

    Tempo Temperatura Precipitação Vento Pressão Humidade
    00:00 +5°C° 1.6 mm 2 m/s 738 mmHg 95%
    01:00 +5°C° 1.6 mm 2 m/s 738 mmHg 96%
    02:00 +4°C° 1.6 mm 2 m/s 738 mmHg 97%
    03:00 +4°C° 1.6 mm 2 m/s 738 mmHg 97%
    04:00 +5°C° 1.6 mm 1 m/s 738 mmHg 97%
    05:00 +4°C° 1.6 mm 1 m/s 737 mmHg 97%
    06:00 +3°C° 0.8 mm 2 m/s 738 mmHg 97%
    07:00 +2°C° 0.8 mm 3 m/s 738 mmHg 97%
    08:00 +3°C° 0.8 mm 3 m/s 738 mmHg 97%
    09:00 +3°C° 0.4 mm 4 m/s 738 mmHg 96%
    10:00 +3°C° 0.4 mm 4 m/s 738 mmHg 95%
    11:00 +3°C° 0.4 mm 4 m/s 738 mmHg 94%
    12:00 +3°C° 0.3 mm 4 m/s 738 mmHg 94%
    13:00 +3°C° 0.3 mm 4 m/s 738 mmHg 94%
    14:00 +3°C° 0.3 mm 4 m/s 738 mmHg 94%
    15:00 +3°C° 0.8 mm 3 m/s 737 mmHg 95%
    16:00 +2°C° 0.8 mm 3 m/s 737 mmHg 96%
    17:00 +2°C° 0.8 mm 3 m/s 737 mmHg 97%
    18:00 +2°C° 0.7 mm 3 m/s 737 mmHg 97%
    19:00 +2°C° 0.7 mm 3 m/s 737 mmHg 97%
    20:00 +1°C° 0.7 mm 3 m/s 737 mmHg 98%
    21:00 +2°C° 0.5 mm 2 m/s 737 mmHg 98%
    22:00 +2°C° 0.5 mm 2 m/s 737 mmHg 98%
    23:00 +3°C° 0.5 mm 1 m/s 737 mmHg 98%

    2 Abril, Quinta-feira

    Tempo Temperatura Precipitação Vento Pressão Humidade
    00:00 +2°C° 0.5 mm 2 m/s 737 mmHg 97%
    01:00 +2°C° 0.5 mm 2 m/s 737 mmHg 97%
    02:00 +2°C° 0.5 mm 2 m/s 737 mmHg 97%
    03:00 +2°C° 0.4 mm 2 m/s 737 mmHg 97%
    04:00 +2°C° 0.4 mm 2 m/s 737 mmHg 96%
    05:00 +2°C° 0.4 mm 2 m/s 737 mmHg 95%
    06:00 +2°C° 0.2 mm 2 m/s 737 mmHg 93%
    07:00 +2°C° 0.2 mm 2 m/s 738 mmHg 91%
    08:00 +2°C° 0.2 mm 2 m/s 738 mmHg 89%
    09:00 +4°C° 0 mm 2 m/s 738 mmHg 87%
    10:00 +5°C° 0 mm 2 m/s 738 mmHg 85%
    11:00 +7°C° 0 mm 1 m/s 738 mmHg 84%
    12:00 +7°C° 0 mm 1 m/s 738 mmHg 83%
    13:00 +8°C° 0 mm 1 m/s 738 mmHg 81%
    14:00 +9°C° 0 mm 1 m/s 738 mmHg 80%
    15:00 +9°C° 0 mm 1 m/s 738 mmHg 81%
    16:00 +9°C° 0 mm 1 m/s 737 mmHg 81%
    17:00 +9°C° 0 mm 1 m/s 737 mmHg 81%
    18:00 +8°C° 0 mm 1 m/s 737 mmHg 84%
    19:00 +7°C° 0 mm 1 m/s 737 mmHg 87%
    20:00 +6°C° 0 mm 1 m/s 737 mmHg 89%
    21:00 +5°C° 0 mm 1 m/s 738 mmHg 89%
    22:00 +5°C° 0 mm 1 m/s 738 mmHg 88%
    23:00 +4°C° 0 mm 1 m/s 738 mmHg 88%

    3 Abril, Sexta-feira

    Tempo Temperatura Precipitação Vento Pressão Humidade
    00:00 +4°C° 0 mm 1 m/s 738 mmHg 88%
    01:00 +4°C° 0 mm 1 m/s 738 mmHg 89%
    02:00 +4°C° 0 mm 1 m/s 738 mmHg 89%
    03:00 +4°C° 0 mm 1 m/s 738 mmHg 90%
    04:00 +4°C° 0 mm 1 m/s 738 mmHg 90%
    05:00 +3°C° 0 mm 0 m/s 737 mmHg 91%
    06:00 +4°C° 0 mm 0 m/s 737 mmHg 89%
    07:00 +4°C° 0 mm 0 m/s 738 mmHg 88%
    08:00 +5°C° 0 mm 0 m/s 738 mmHg 87%
    09:00 +7°C° 0 mm 0 m/s 738 mmHg 85%
    10:00 +9°C° 0 mm 1 m/s 737 mmHg 83%
    11:00 +11°C° 0 mm 1 m/s 737 mmHg 81%
    12:00 +11°C° 0 mm 1 m/s 737 mmHg 80%
    13:00 +12°C° 0 mm 1 m/s 737 mmHg 78%
    14:00 +12°C° 0 mm 1 m/s 737 mmHg 77%
    15:00 +12°C° 0 mm 1 m/s 737 mmHg 76%
    16:00 +12°C° 0 mm 1 m/s 736 mmHg 76%
    17:00 +12°C° 0 mm 1 m/s 736 mmHg 76%
    18:00 +11°C° 0 mm 1 m/s 736 mmHg 79%
    19:00 +9°C° 0 mm 1 m/s 737 mmHg 83%
    20:00 +8°C° 0 mm 1 m/s 737 mmHg 86%
    21:00 +8°C° 0 mm 1 m/s 737 mmHg 86%
    22:00 +7°C° 0 mm 1 m/s 738 mmHg 85%
    23:00 +7°C° 0 mm 1 m/s 738 mmHg 85%

    4 Abril, Sábado

    Tempo Temperatura Precipitação Vento Pressão Humidade
    00:00 +7°C° 0 mm 1 m/s 739 mmHg 84%
    01:00 +5°C° 0 mm 2 m/s 739 mmHg 84%
    02:00 +5°C° 0 mm 2 m/s 739 mmHg 84%
    03:00 +5°C° 0 mm 2 m/s 739 mmHg 84%
    04:00 +5°C° 0 mm 2 m/s 740 mmHg 84%
    05:00 +5°C° 0 mm 2 m/s 740 mmHg 84%
    06:00 +6°C° 0 mm 2 m/s 740 mmHg 81%
    07:00 +7°C° 0 mm 2 m/s 741 mmHg 79%
    08:00 +9°C° 0 mm 2 m/s 741 mmHg 76%
    09:00 +10°C° 0 mm 2 m/s 742 mmHg 71%
    10:00 +11°C° 0 mm 3 m/s 742 mmHg 66%
    11:00 +13°C° 0 mm 3 m/s 742 mmHg 61%
    12:00 +13°C° 0 mm 3 m/s 742 mmHg 61%
    13:00 +13°C° 0 mm 4 m/s 742 mmHg 62%
    14:00 +13°C° 0 mm 4 m/s 742 mmHg 62%
    15:00 +13°C° 0 mm 3 m/s 742 mmHg 63%
    16:00 +13°C° 0 mm 3 m/s 742 mmHg 65%
    17:00 +13°C° 0 mm 3 m/s 742 mmHg 66%
    18:00 +12°C° 0 mm 2 m/s 743 mmHg 70%
    19:00 +9°C° 0 mm 2 m/s 743 mmHg 75%
    20:00 +8°C° 0 mm 2 m/s 744 mmHg 79%
    21:00 +7°C° 0 mm 2 m/s 744 mmHg 80%
    22:00 +7°C° 0 mm 2 m/s 745 mmHg 80%
    23:00 +6°C° 0 mm 2 m/s 746 mmHg 81%
    Mostrar mais